Regional Weather Roundup
Issued by NWS

Home | Current Version | Previous Version | Text Only | Print | Product List | Glossary Off
Versions: 1 2 3 4 5 6 7 8 9 10 11 12 13 14 15 16 17 18 19 20 21 22 23 24 25 26 27 28 29 30 31 32 33 34 35 36 37 38 39 40 41 42 43 44 45 46 47 48 49 50

000
ASUS43 KLOT 290408
RWRIL

ILLINOIS REGIONAL WEATHER ROUNDUP
NATIONAL WEATHER SERVICE CHICAGO/ROMEOVILLE IL
1100 PM CDT THU APR 28 2016

NOTE: "FAIR" INDICATES FEW OR NO CLOUDS BELOW 12,000 FEET WITH NO
SIGNIFICANT WEATHER AND/OR OBSTRUCTIONS TO VISIBILITY.

* THESE STATIONS ARE NOT UNDER NWS QUALITY CONTROL. THEY ALSO MAY NOT
  REPORT WEATHER SUCH AS PRECIPITATION OR FOG.

ILZ001-002-007-009-015-016-024-290500-
NORTHWEST ILLINOIS

CITY           SKY/WX    TMP DP  RH WIND       PRES   REMARKS
MOLINE         CLOUDY    51  48  89 SE3       29.99S FOG
STERLING*      MOCLDY    45  43  93 NE7       30.01S
SAVANNA*       CLOUDY    44  42  92 NE8       30.02R FOG
$$

ILZ003-004-008-010-011-017-018-290500-
NORTH CENTRAL ILLINOIS

CITY           SKY/WX    TMP DP  RH WIND       PRES   REMARKS
ROCKFORD       DRIZZLE   43  39  86 NE9       30.03F FOG
FREEPORT*      CLOUDY    41  39  95 NE8       30.04S FOG
ROCHELLE*      CLOUDY    43  41  93 NE8       30.01S FOG
DE KALB*       CLOUDY    42  41  96 NE6       30.01S FOG
$$

ILZ005-006-012>014-019>023-290500-
NORTHEAST ILLINOIS

CITY           SKY/WX    TMP DP  RH WIND       PRES   REMARKS
CHICAGO-OHARE  CLOUDY    42  41  96 N10G22    30.00F FOG
CHICAGO-MIDWAY CLOUDY    45  41  86 N7        30.00F FOG
AURORA         CLOUDY    45  42  89 NE9       30.01S FOG
LANSING*       CLOUDY    46  42  88 CALM      30.00F
JOLIET*        CLOUDY    47  43  86 N5        30.00S FOG
WAUKEGAN       LGT RAIN  41  40  96 N5        30.01F FOG
DUPAGE AIRPORT CLOUDY    43  39  86 NE7       30.00F
KANKAKEE*      CLOUDY    49  44  84 CALM      30.01R
WHEELING       CLOUDY    42  41  96 N6        30.02F
MORRIS*        CLOUDY    46  43  87 CALM      29.99S
ROMEOVILLE*    CLOUDY    44  40  86 NE7       30.00R FOG
NORTHERLY ISL    N/A     43  41  93 N7          N/A
NORTHERLY ISL    N/A     43  41  93 N7          N/A
$$

LMZ740>746-290500-
SOUTHERN LAKE MICHIGAN

STATION/POSITION SKY/WX   TEMP    WIND        PRES    VSBY  WAVE
                          AIR SEA DIR/SP/G                  HT/PER
                          (F)     (DEG/KT/KT) (MB)    (MI)  (FT/S)
HARRISON CRIB              44     360/ 11/ 12   N/A
BURNHAM HARBOR             43     360/  8/  9   N/A
CALUMET HARBOR             44                 1015.6R
BURNS HARBOR               45     320/  4/  7 1016.3R
MICHIGAN CITY              48     200/  3/  4   N/A
ST. JOSEPH                 49 47  110/ 10/ 12   N/A           2/ 4
$$

ILZ025>027-034>036-040-047-049-050-058-095>099-290500-
WEST-CENTRAL ILLINOIS

CITY           SKY/WX    TMP DP  RH WIND       PRES   REMARKS
QUINCY         CLOUDY    56  47  71 W7        30.02S
GALESBURG*     CLOUDY    52  49  89 W3        30.00S
MACOMB*        CLOUDY    54  50  86 W6        30.03S
JACKSONVILLE*  CLOUDY    58  49  72 W7        30.02S
PITTSFIELD*    PTCLDY    57  49  74 W5        30.03F
$$

ILZ028>032-037-038-041>044-048-051>054-059>061-290500-
CENTRAL ILLINOIS

CITY           SKY/WX    TMP DP  RH WIND       PRES   REMARKS
PONTIAC        CLOUDY    52  52  99 N3        30.00S FOG
BLOOMINGTON    CLOUDY    55  49  80 W6        30.01S
DECATUR        CLEAR     55  47  74 NW6       30.00F
PEORIA         CLOUDY    55  47  74 SW3       30.01R
LACON*         CLOUDY    52  49  89 CALM      30.00R
LINCOLN*       CLOUDY    58  50  74 CALM      30.01S
SPRINGFIELD    CLOUDY    58  52  80 NW5       30.01S
TAYLORVILLE    PTCLDY    55  48  76 CALM      30.01S
$$

ILZ033-039-045-046-055>057-062-063-290500-
EAST-CENTRAL ILLINOIS

CITY           SKY/WX    TMP DP  RH WIND       PRES   REMARKS
CHAMPAIGN      CLOUDY    54  48  80 NW8       30.00S
RANTOUL*       CLOUDY    55  50  85 NW5       30.00S
MATTOON        CLEAR     52  48  86 N5        30.00R
PARIS*         PTCLDY    54  48  81 NW7       30.01R
$$

ILZ079-100>102-290500-
SOUTHWEST ILLINOIS

CITY           SKY/WX    TMP DP  RH WIND       PRES   REMARKS
BELLEVILLE     CLEAR     59  50  74 N3        30.00R
CAHOKIA*       CLEAR     59  49  69 N7        30.02R
SPARTA*        CLEAR     60  51  73 N6        30.02R
$$

ILZ064>066-069>071-074>076-080>082-084>086-088>090-092>094-290500-
SOUTH-CENTRAL ILLINOIS

CITY           SKY/WX    TMP DP  RH WIND       PRES   REMARKS
CARBONDALE     CLEAR     57  53  86 CALM      30.00R
CAIRO*         CLEAR     60  57  91 CALM      29.99S
EFFINGHAM*     CLEAR     58  51  78 NW5       30.02S
MARION         CLEAR     59  55  88 CALM      30.00S
MT. VERNON     CLEAR     61  48  63 N3        30.01R
CENTRALIA*     CLEAR     59  53  80 N8        30.01R
SALEM*         CLEAR     59  50  73 N7        30.02R
METROPOLIS*    CLEAR     59  57  93 CALM      29.99S
$$

ILZ067-068-072-073-078-083-087-091-290500-
SOUTHEAST ILLINOIS

CITY           SKY/WX    TMP DP  RH WIND       PRES   REMARKS
LAWRENCEVILLE  CLEAR     61  52  72 NW13      29.99R
FLORA*         PTCLDY    60  53  76 NW7       30.01R
FAIRFIELD*     CLEAR     61  53  72 N8        29.99R
HARRISBURG*    CLEAR     61  53  74 N3        29.99S
ROBINSON*      PTCLDY    57  51  81 N8        30.01R
CARMI*         CLEAR     58  56  93 W3        29.99R
$$

ABBREVIATIONS USED IN REMARKS
   TC - TEMPERATURE IN CELSIUS
  WCI - WIND CHILL INDEX
   HX - HEAT INDEX
  VSB - VISIBILITY
$$





USA.gov is the U.S. government's official web portal to all federal, state and local government web resources and services.